Volver al catálogo

WESTFORD NEEDLES

ActivoHEO
NORAD 2362·DEBRIS·🇺🇸 United States

Lanzado May 9, 1963 desde Vandenberg Space Force Base

Loading…

Próximos Pases (próximas 24 horas)

TLE

ActualizadoSource: Space-Track

Época: Sep 14, 2026, 01:11 UTC

1 02362U 63014M   26257.04948139  .00000697  00000-0  55245-2 0  9992
2 02362  85.1143 297.9192 2583165 279.5850  52.5309  8.86409842 14628

Sigue WESTFORD NEEDLES en tiempo real con AllMySat

Download on the App Store